Location: Marengo
(51.4813°N, 109.7825°W)
Time: 02:58:14
(UTC+00:00)

BlueWalker 3 - Pass Details

Date: 02 December 2022
Orbit: 499 x 517 km, 53.2° (Epoch: 26 January)

Event Time Altitude Azimuth Distance (km) Brightness Sun altitude
Rises 00:01:46 0° 252° (WSW) 2,632 7.9 -7.3°
Reaches altitude 10° 00:03:58 10° 252° (WSW) 1,743 6.4 -7.6°
Maximum altitude 00:07:55 90° 284° (WNW) 520 2.0 -8.1°
Enters shadow 00:11:39 11° 73° (ENE) 1,652 3.9 -8.7°
